Location: Santiago
(33.4378°S, 70.6505°W)
Time: 22:24:30
(UTC+00:00)

ISS - Pass Details

Date: 09 April 2026
Orbit: 416 x 425 km, 51.6° (Epoch: 18 April)

Event Time Altitude Azimuth Distance (km) Brightness Sun altitude
Rises 23:25:09 0° 334° (NNW) 2,362 0.4 -12.9°
Reaches altitude 10° 23:27:21 10° 343° (NNW) 1,503 -0.7 -13.3°
Maximum altitude 23:30:26 33° 49° (NE) 730 -2.9 -14.0°
Enters shadow 23:31:21 28° 83° (E) 830 -2.9 -14.2°
